CDT,Max TemperatureF,Mean TemperatureF,Min TemperatureF,Max Dew PointF,MeanDew PointF,Min DewpointF,Max Humidity, Mean Humidity, Min Humidity, Max Sea Level PressureIn, Mean Sea Level PressureIn, Min Sea Level PressureIn, Max VisibilityMiles, Mean VisibilityMiles, Min VisibilityMiles, Max Wind SpeedMPH, Mean Wind SpeedMPH, Max Gust SpeedMPH,PrecipitationIn, CloudCover, Events, WindDirDegrees
2011-9-1,91,80,69,75,71,66,94,76,55,29.93,29.84,29.75,10,8,4,16,9,21,0.00,0,,161
2011-9-2,80,74,68,75,70,64,94,88,79,29.96,29.88,29.78,10,9,5,24,5,41,0.10,1,Rain,166
2011-9-3,75,67,57,70,65,55,94,90,78,29.99,29.90,29.86,10,7,2,14,5,18,1.44,5,Rain,206
2011-9-4,66,58,50,54,51,48,94,78,63,30.13,30.07,29.99,10,10,10,16,9,23,0.00,2,,311
2011-9-5,66,55,44,52,47,43,93,73,46,30.25,30.20,30.15,10,10,10,8,5,,0.00,1,,23
2011-9-6,68,55,42,55,46,41,100,75,49,30.25,30.21,30.18,10,8,1,6,2,,0.00,0,,107
2011-9-7,73,58,42,54,47,41,93,69,33,30.31,30.27,30.23,10,10,10,8,3,,0.05,0,,24
2011-9-8,80,65,50,57,51,45,82,64,34,30.28,30.22,30.12,10,10,10,14,6,17,0.00,1,,358
2011-9-9,80,68,55,57,52,45,82,60,28,30.10,30.03,29.98,10,10,10,10,6,,0.00,0,,36
2011-9-10,80,66,53,61,49,37,82,60,21,30.09,30.05,30.03,10,10,5,7,3,,0.00,0,,28
2011-9-11,86,70,53,63,53,48,82,64,27,30.06,30.02,29.97,10,10,10,9,1,,0.00,1,,268
2011-9-12,87,72,57,61,55,52,82,58,31,29.99,29.89,29.76,10,10,5,21,8,29,0.00,0,,218
2011-9-13,71,60,50,52,43,34,82,56,25,30.06,30.00,29.89,10,10,10,15,9,21,0.00,0,,326
2011-9-14,60,50,41,46,30,12,82,48,16,30.30,30.19,30.04,10,10,10,17,7,24,0.00,0,Rain,336
2011-9-15,59,46,33,32,22,1,81,48,10,30.44,30.39,30.33,10,10,10,12,5,20,0.00,0,,15
2011-9-16,53,50,46,39,37,34,71,62,47,30.35,30.31,30.25,10,10,10,12,5,16,0.00,6,Rain,132
2011-9-17,62,55,48,46,40,34,76,58,34,30.26,30.20,30.12,10,10,7,16,8,22,0.00,8,Rain,131
2011-9-18,60,58,55,54,51,46,88,77,67,30.11,30.02,29.94,10,7,1,12,6,17,0.76,8,Rain,139
2011-9-19,73,62,50,55,49,30,88,71,22,30.07,30.01,29.95,10,8,1,9,4,,0.00,4,,307
2011-9-20,73,60,48,54,46,37,82,61,31,29.99,29.89,29.80,10,10,7,21,8,30,0.03,2,Rain,199
2011-9-21,60,56,51,46,44,41,72,65,55,30.08,29.93,29.84,10,10,7,21,14,28,0.00,6,,267
2011-9-22,57,52,48,46,43,36,82,73,44,30.16,30.12,30.07,10,9,2,9,7,,0.03,7,Rain,313
2011-9-23,62,54,46,43,40,36,82,65,37,30.17,30.12,30.05,10,10,10,7,2,,0.00,6,,28
2011-9-24,62,50,37,46,38,32,87,69,34,30.07,30.03,29.99,10,9,0,12,3,,0.00,3,,50
2011-9-25,66,54,42,48,42,37,87,70,37,30.03,29.95,29.86,10,10,7,14,5,18,0.00,5,Rain,23
2011-9-26,60,56,51,54,50,46,88,81,77,29.86,29.76,29.64,10,8,3,20,9,32,0.49,6,Rain,346
2011-9-27,66,58,51,55,50,46,82,74,60,29.91,29.86,29.79,10,9,5,13,6,20,0.00,6,,338
2011-9-28,73,63,53,57,54,48,88,73,50,29.88,29.85,29.81,10,8,2,6,2,,0.00,5,,107
2011-9-29,69,60,51,50,42,28,82,57,21,29.94,29.82,29.76,10,8,2,32,11,50,0.00,3,,295
2011-9-30,66,56,44,45,35,16,82,52,15,30.22,30.15,30.05,10,10,10,17,11,24,0.00,0,,334